Simultaneous Nadir Overpasses (SNOs) Predictions

Prediction of SNOs between LANDSAT-8 and METOP-B Satellite Orbit:

Table of predicted SNOs for the next 14.0 days since TLE Epoch: 3/23/2019
Index Date (LANDSAT-8) Time (LANDSAT-8) Lat,Lon (LANDSAT-8) SZA (LANDSAT-8 ) Date (METOP-B) Time (METOP-B) Lat,Lon (METOP-B) SZA (METOP-B ) Distance(km) Time Diff (sec)
1 03/25/2019 04:25:38 -81.09, -27.45 98.79 03/25/2019 04:25:17 -81.09, -27.37 98.79 1.45 21
2 03/25/2019 05:15:03 81.11, 140.57 81.26 03/25/2019 05:15:56 81.12, 140.72 81.30 2.75 53
3 03/27/2019 23:59:52 -81.10, 39.17 99.84 03/27/2019 23:59:39 -81.10, 39.35 99.83 3.16 13
4 03/28/2019 00:49:17 81.12,-152.84 80.20 03/28/2019 00:50:19 81.12,-152.95 80.21 2.08 62
5 03/30/2019 19:34:08 -81.09, 105.50 100.93 03/30/2019 19:34:04 -81.09, 105.31 100.95 3.29 4
6 03/30/2019 20:23:33 81.12, -86.52 79.11 03/30/2019 20:24:43 81.11, -86.63 79.13 1.88 70
7 04/02/2019 14:18:58 81.06, 3.83 77.96 04/02/2019 14:17:49 81.06, 3.66 77.91 3.04 69
8 04/02/2019 15:08:24 -81.09, 171.91 101.99 04/02/2019 15:08:27 -81.10, 172.01 101.98 1.90 3
9 04/05/2019 09:53:13 81.07, 70.31 76.91 04/05/2019 09:52:11 81.07, 70.33 76.90 0.66 62




NCC Satellite Simultaneous Nadir Overpasses (SNOs) Prediction Service
